This demonstration page uses our WeatherBlox Daily Observations layout. Learn more.

Left ArrowRight Arrow

Hourly Observations for November 7, 2015

Temp ( °F °C ) Dew Point ( °F °C ) Humidity (%) Winds ( mph kmh ) Pressure ( in mb ) Visibility ( mi km ) Precip ( " mm )
12:00 am 00:00 Cloudy with Light Rain 70 21 68 20 94 94 Calm 30.12 1020 10 16 0.00 0.00
12:53 am 00:53 Cloudy with Light Rain 70 21.1 68 20 93 93 SSW 3 6 30.08 1019 10 16 0.00 0.03
1:01 am 01:01 Cloudy with Mist and Fog 70 21.1 68 20 93 93 Calm 30.12 1020 6 10 0.00 0.03
1:09 am 01:09 Cloudy with Mist and Fog 70 21.1 68 20 93 93 Calm 30.12 1020 6 10 0.00 0.03
1:16 am 01:16 Cloudy with Light Rain 70 21 68 20 94 94 SW 3 6 30.12 1020 6 10 0.00 0.00
1:28 am 01:28 Cloudy with Light Rain 70 21 66 19 88 88 SSE 3 6 30.09 1019 6 10 0.00 0.00
1:53 am 01:53 Cloudy with Light Rain 70 21.1 67 19.4 90 90 Calm 30.08 1019 6 10 0.04 1.02
2:19 am 02:19 Cloudy with Light Rain 69 20.6 68 20 96 96 SSE 3 6 30.09 1019 7 11 0.00 0.03
2:40 am 02:40 Cloudy with Rain 70 21 66 19 88 88 SSW 6 9 30.12 1020 4 6 0.00 0.00
2:49 am 02:49 Cloudy with Nearby Thunderstorms 70 21 66 19 88 88 Calm 30.09 1019 3 5 0.09 2.29
2:53 am 02:53 Cloudy with Nearby Thunderstorms 69 20.6 67 19.4 93 93 Calm 30.08 1019 3 4 0.11 2.79
3:01 am 03:01 Cloudy with Heavy Rain 69 20.6 67 19.4 93 93 SSW 3 6 30.12 1020 3 5 0.03 0.76
3:15 am 03:15 Cloudy with Heavy Rain 69 20.6 67 19.4 93 93 SW 9 15 30.12 1020 2 3 0.19 4.83
3:17 am 03:17 Cloudy with Heavy Rain 69 20.6 66 18.9 90 90 WSW 7 11 30.12 1020 2 2 0.25 6.35
3:29 am 03:29 Cloudy with Rain 68 20 67 19.4 96 96 W 3 6 30.12 1020 2 3 0.38 9.65
3:38 am 03:38 Cloudy with Heavy Rain 68 20 66 19 94 94 Calm 30.09 1019 3 4 0.00 0.00
3:46 am 03:46 Cloudy with Light Rain 68 20 66 19 94 94 E 5 7 30.09 1019 8 13 0.00 0.00
3:53 am 03:53 Cloudy with Light Rain 68 20 67 19.4 96 96 Calm 30.07 1018 10 16 0.44 11.18
4:24 am 04:24 Cloudy with Rain 68 20 66 19 94 94 Calm 30.09 1019 2 3 0.00 0.00
4:33 am 04:33 Cloudy with Light Rain 68 20 67 19.4 96 96 Calm 30.09 1019 8 13 0.09 2.29
4:53 am 04:53 Cloudy 68 20 67 19.4 96 96 N 6 9 30.07 1018 9 14 0.09 2.29
5:00 am 05:00 Cloudy with Nearby Thunderstorms 68 20 66 19 94 94 ENE 5 7 30.09 1019 10 16 0.00 0.00
5:21 am 05:21 Cloudy with Thunderstorms 68 20 66 18.9 93 93 W 8 13 30.09 1019 7 11 0.02 0.51
5:28 am 05:28 Cloudy with Strong Thunderstorms 68 20 66 18.9 93 93 NW 7 11 30.09 1019 2 3 0.17 4.32
5:35 am 05:35 Cloudy with Nearby Thunderstorms 67 19.4 65 18.3 93 93 NW 7 11 30.12 1020 1 2 0.28 7.11
5:43 am 05:43 Cloudy with Nearby Thunderstorms 67 19.4 65 18.3 93 93 NNW 5 7 30.12 1020 3 5 0.30 7.62
5:53 am 05:53 Cloudy with Heavy Rain 67 19.4 65 18.3 93 93 W 3 6 30.10 1019 3 5 0.33 8.38
5:57 am 05:57 Cloudy with Rain 67 19.4 65 18.3 93 93 NNW 6 9 30.12 1020 3 4 0.01 0.25
6:04 am 06:04 Cloudy with Light Rain 66 19 64 18 94 94 NW 5 7 30.12 1020 8 13 0.00 0.00
6:11 am 06:11 Cloudy with Heavy Rain 67 19.4 65 18.3 93 93 NNW 5 7 30.12 1020 3 4 0.06 1.52
6:23 am 06:23 Cloudy with Light Rain 67 19.4 65 18.3 93 93 N 7 11 30.12 1020 6 10 0.07 1.78
6:31 am 06:31 Cloudy with Light Rain 67 19.4 65 18.3 93 93 NNW 3 6 30.15 1021 9 14 0.07 1.78
6:50 am 06:50 Cloudy with Light Rain 66 19 64 18 94 94 NE 8 13 30.15 1021 10 16 0.07 1.78
6:53 am 06:53 Cloudy with Light Rain 67 19.4 64 17.8 91 91 NNE 12 19 30.13 1020 10 16 0.07 1.78
7:01 am 07:01 Cloudy 66 18.9 63 17.2 90 90 N 6 9 30.15 1021 10 16 0.00 0.03
7:08 am 07:08 Cloudy with Light Rain 66 19 63 17 88 88 NE 7 11 30.15 1021 8 13 0.00 0.00
7:17 am 07:17 Cloudy with Light Rain 66 18.9 63 17.2 90 90 NE 6 9 30.15 1021 7 11 0.01 0.25
7:53 am 07:53 Cloudy 65 18.3 62 16.7 90 90 NE 3 6 30.14 1021 10 16 0.01 0.25
8:21 am 08:21 Cloudy 65 18.3 62 16.7 90 90 N 5 7 30.15 1021 10 16 0.00 0.03
8:53 am 08:53 Cloudy 67 19.4 62 16.7 84 84 N 3 6 30.14 1021 10 16 0.00 0.03
9:53 am 09:53 Cloudy 67 19.4 63 17.2 87 87 Calm 30.15 1021 10 16 0.00 0.00
10:53 am 10:53 Cloudy 67 19.4 63 17.2 87 87 W 3 6 30.17 1022 10 16 0.00 0.00
11:53 am 11:53 Cloudy 68 20 63 17.2 84 84 Calm 30.14 1021 10 16 0.01 0.25
12:53 pm 12:53 Cloudy 70 21.1 63 17.2 79 79 NW 3 6 30.11 1020 10 16 0.00 0.00
1:18 pm 13:18 Cloudy 70 21 64 18 83 83 NW 7 11 30.15 1021 10 16 0.00 0.00
1:53 pm 13:53 Cloudy 70 21.1 64 17.8 82 82 NNW 6 9 30.11 1020 10 16 0.00 0.00
2:53 pm 14:53 Cloudy with Light Rain 68 20 64 17.8 87 87 N 7 11 30.10 1019 10 16 0.01 0.25
3:53 pm 15:53 Cloudy with Light Rain 66 18.9 62 16.7 87 87 N 6 9 30.10 1019 10 16 0.00 0.03
4:53 pm 16:53 Cloudy 66 18.9 62 16.7 87 87 N 3 6 30.11 1020 10 16 0.00 0.03
5:10 pm 17:10 Cloudy 66 19 61 16 83 83 NNW 5 7 30.15 1021 10 16 0.00 0.00
5:53 pm 17:53 Cloudy 65 18.3 61 16.1 87 87 N 7 11 30.13 1020 10 16 0.00 0.00
6:19 pm 18:19 Cloudy 65 18.3 60 15.6 84 84 N 5 7 30.15 1021 10 16 0.00 0.00
6:53 pm 18:53 Cloudy 63 17.2 58 14.4 84 84 NNW 9 15 30.14 1021 10 16 0.00 0.00
7:51 pm 19:51 Cloudy 61 16 57 14 88 88 N 13 20 30.18 1022 10 16 0.00 0.03
7:53 pm 19:53 Cloudy 61 16.1 57 13.9 87 87 NNW 14 22 30.16 1021 10 16 0.00 0.03
8:10 pm 20:10 Cloudy 59 15 55 13 88 88 NNW 10 17 30.18 1022 10 16 0.00 0.00
8:17 pm 20:17 Cloudy 59 15 55 12.8 87 87 NNW 5 7 30.18 1022 10 16 0.00 0.00
8:26 pm 20:26 Cloudy 59 15 55 13 88 88 NNW 8 13 30.18 1022 10 16 0.00 0.00
8:53 pm 20:53 Cloudy 58 14.4 53 11.7 84 84 N 10 17 30.17 1022 10 16 0.00 0.00
9:30 pm 21:30 Cloudy 57 14 54 12 88 88 VRB 6 9 30.18 1022 10 16 0.00 0.00
9:53 pm 21:53 Cloudy 57 13.9 52 11.1 83 83 Calm 30.16 1021 10 16 0.00 0.00
10:53 pm 22:53 Cloudy with Light Rain 57 13.9 53 11.7 87 87 NW 3 6 30.17 1022 10 16 0.01 0.25
11:53 pm 23:53 Mostly Cloudy with Light Rain 56 13.3 52 11.1 87 87 NNW 5 7 30.17 1022 10 16 0.00 0.03

Powered by AerisWeather